Home > Weather > Lansing > Past weeks

Flag for USA Past Weather in Lansing, Michigan, USA — Yesterday and Last 2 Weeks

Now
73 °F

Partly sunny.


Feels Like: 77 °F
Forecast: 58 / 72 °F
Wind: 10 mph from Northwest

Location: Capital City Airport

Current Time: Jul 1, 2016 at 4:40:55 PM

Latest Report: Jul 1, 2016 at 3:53 PM


Visibility: 10 mi

Pressure: 30.02 "Hg

Humidity: 43%

Dew Point: 49 °F

Location of LansingLocation

Past Weather in Lansing — Graph

°F

Lansing Temperature Yesterday

Maximum temperature yesterday: 82 °F (at 2:53 PM)
Minimum temperature yesterday: 52 °F (at 6:53 AM)
Average temperature yesterday: 70 °F

High & Low Weather Summary for the Past Weeks

 TemperatureHumidityPressure
High90 °F (Jun 19, 5:53 PM)93% (Jun 16, 2:00 PM)30.26 "Hg (Jun 16, 2:00 PM)
Low48 °F (Jun 29, 4:53 AM)23% (Jun 18, 5:53 PM)29.76 "Hg (Jun 16, 2:00 PM)
Average72 °F54%30.02 "Hg
* Reported Jun 16 2:00 PM — Jul 1 2:53 PM, Lansing, Weather by CustomWeather, © 2016

Note: Actual official high and low records may vary slightly from our data, if they occured in-between our weather recording intervals... More about our weather records

Advertising

Lansing Weather History for the Previous 24 Hours

Scroll right to see more
 ConditionsComfort  
Time TempWeatherWind HumidityBarometerVisibility
2:53 PM
Fri, Jul 1
72 °FScattered clouds.16 mph48%30.01 "Hg10 mi
1:53 PM71 °FPartly sunny.15 mph51%30.00 "Hg10 mi
12:53 PM69 °FPartly sunny.13 mph57%29.98 "Hg10 mi
11:53 AM67 °FMild.16 mph63%29.98 "Hg10 mi
10:53 AM66 °FOvercast.14 mph68%29.95 "Hg10 mi
9:53 AM63 °FBroken clouds.12 mph78%29.94 "Hg10 mi
8:53 AM62 °FMore clouds than sun.13 mph83%29.92 "Hg10 mi
7:53 AM61 °FMostly cloudy.10 mph90%29.90 "Hg8 mi
6:53 AM60 °FFog.3 mph90%29.88 "Hg4 mi
5:53 AM59 °FPassing clouds.No wind90%29.88 "Hg8 mi
4:53 AM60 °FLight rain. Fog.7 mph93%29.87 "Hg6 mi
3:53 AM63 °FOvercast.No wind78%29.83 "Hg10 mi
2:53 AM63 °FMostly cloudy.No wind78%29.86 "Hg10 mi
1:53 AM68 °FOvercast.5 mph55%29.88 "Hg10 mi
12:53 AM68 °FMostly cloudy.No wind55%29.89 "Hg10 mi
11:53 PM
Thu, Jun 30
69 °FPassing clouds.6 mph51%29.90 "Hg10 mi
10:53 PM69 °FClear.7 mph49%29.92 "Hg10 mi
9:53 PM72 °FScattered clouds.8 mph43%29.93 "Hg10 mi
8:53 PM74 °FPassing clouds.6 mph40%29.93 "Hg10 mi
7:53 PM77 °FPartly sunny.10 mph35%29.93 "Hg10 mi
6:53 PM77 °FSunny.10 mph32%29.94 "Hg10 mi
5:53 PM79 °FScattered clouds.12 mph28%29.94 "Hg10 mi
4:53 PM78 °FPartly sunny.10 mph30%29.95 "Hg10 mi
Weather by CustomWeather, © 2016

See weather overviewHow to use our weather pages